Location: Colonia Mina de C?rbuni
(46.1667°N, 22.7167°E)
Time: 13:31:28
(UTC+00:00)

deb Explorer IX - Pass Details

Date: 16 April 2024
Orbit: 512 x 891 km, 38.7° (Epoch: 23 May)

Event Time Altitude Azimuth Distance (km) Brightness Sun altitude
Rises 14:24:31 0° 264° (W) 3,515 ? 28.8°
Reaches altitude 10° 14:27:20 10° 257° (WSW) 2,554 ? 28.4°
Maximum altitude 14:32:53 37° 192° (SSW) 1,309 ? 27.4°
Drops below altitude 10° 14:38:05 10° 127° (SE) 2,381 ? 26.6°
Sets 14:40:37 0° 119° (ESE) 3,249 ? 26.1°
